Location: Mason Neck State Park
(38.6428°N, 77.1981°W)
Time: 13:30:05
(UTC-04:00)

Cosmos 2278 Rocket - Visible Passes

Search period start: 02 September 2014 00:00
Search period end: 12 September 2014 00:00
Orbit: 840 x 847 km, 71.0° (Epoch: 31 August)

Date Brightness Start Highest point End Pass type
(mag) Time Alt. Az. Time Alt. Az. Time Alt. Az.
02 Sep 3.2 06:07:43 10° NNW 06:13:17 54° ENE 06:18:47 10° SE visible
02 Sep 2.9 20:57:41 10° SW 21:03:15 58° WNW 21:08:51 10° NNE visible
03 Sep 3.2 05:53:17 10° NNW 05:58:49 52° ENE 06:04:18 10° SE visible
03 Sep 2.8 20:43:12 10° SW 20:48:47 61° WNW 20:54:25 10° NNE visible
04 Sep 3.3 05:38:50 10° NNW 05:44:21 50° ENE 05:49:48 10° SE visible
04 Sep 2.8 20:28:43 10° SSW 20:34:19 63° WNW 20:39:58 10° NNE visible
05 Sep 3.3 05:24:24 10° NNW 05:29:53 48° ENE 05:35:18 10° SE visible
05 Sep 2.7 20:14:14 10° SSW 20:19:52 66° WNW 20:25:31 10° NNE visible
05 Sep 5.5 22:04:28 10° NW 22:05:05 10° NW 22:05:42 10° NW visible
06 Sep 3.3 05:09:58 10° N 05:15:24 46° ENE 05:20:48 10° SE visible
06 Sep 2.7 19:59:46 10° SSW 20:05:24 69° WNW 20:11:04 10° NNE visible
06 Sep 5.5 21:49:22 10° WNW 21:50:34 11° NW 21:51:47 10° NW visible
07 Sep 3.4 04:55:32 10° N 05:00:56 44° ENE 05:06:18 10° SE visible
07 Sep 5.4 21:34:28 10° WNW 21:36:04 11° NW 21:37:40 10° NNW visible
08 Sep 3.4 04:41:06 10° N 04:46:28 42° ENE 04:51:47 10° SE visible
08 Sep 5.4 21:19:40 10° WNW 21:21:34 12° NW 21:23:28 10° NNW visible
09 Sep 3.5 04:26:40 10° N 04:32:00 40° ENE 04:37:17 10° SE visible
09 Sep 3.1 06:11:13 10° NW 06:15:49 26° WSW 06:20:24 10° SSW visible
09 Sep 5.3 21:04:55 10° WNW 21:07:04 12° NW 21:09:13 10° NNW visible
10 Sep 3.5 04:12:15 10° N 04:17:32 39° ENE 04:22:46 10° SE visible
10 Sep 3.0 05:56:42 10° NW 06:01:23 27° WSW 06:06:03 10° SSW visible
10 Sep 5.2 20:50:11 10° WNW 20:52:34 13° NW 20:54:57 10° NNW visible
11 Sep 3.5 03:57:49 10° N 04:03:03 37° ENE 04:08:15 10° SE visible
11 Sep 3.0 05:42:11 10° NW 05:46:57 29° WSW 05:51:42 10° SSW visible
11 Sep 5.2 20:35:29 10° WNW 20:38:04 13° NW 20:40:40 10° NNW visible
